Lapse_Rate
6.1 6.0 5.8 5.8 5.7 5.7 5.7 5.6 5.4 5.4 5.4 5.6 5.8 5.8 6.0 5.9 5.8 5.9 6.1 6.8 7.1 7.0 6.8 7.3 8.1 7.8 7.3 7.8 7.2 6.7 7.2 7.6 7.3 8.2 7.9 7.3 7.2 7.0 6.9 6.3 6.2 6.4 6.6 6.9 7.0
6.2 6.1 6.0 6.0 6.0 5.9 5.9 5.8 5.7 5.6 5.7 5.8 5.9 6.0 6.0 5.9 5.9 5.8 6.0 6.6 7.2 7.1 7.1 7.1 6.9 7.7 8.0 7.3 7.6 7.7 6.7 8.4 7.7 8.5 8.7 8.2 7.5 7.2 7.2 6.7 6.7 7.0 6.2 6.5 6.7
6.3 6.3 6.2 6.2 6.2 6.1 6.1 6.0 5.9 5.8 5.8 5.9 6.1 6.1 6.1 6.0 5.8 5.7 5.8 6.3 6.9 6.9 7.7 8.3 7.8 7.2 8.2 8.2 7.6 8.3 7.9 8.6 8.3 8.6 8.8 8.3 7.8 7.5 7.6 7.2 7.8 7.8 7.0 6.3 6.0
6.3 6.4 6.3 6.3 6.3 6.3 6.2 6.2 6.1 5.9 5.9 6.0 6.1 6.1 6.1 6.0 5.9 5.9 6.0 6.1 6.6 6.8 6.9 7.1 8.0 7.8 8.7 9.0 9.0 8.8 8.8 8.6 8.6 8.5 8.8 8.3 7.5 8.0 7.8 7.6 7.3 7.5 7.0 6.6 6.2
6.3 6.5 6.4 6.4 6.4 6.4 6.3 6.3 6.2 6.1 6.1 6.1 6.2 6.1 6.0 5.8 5.9 5.9 6.1 6.3 6.5 6.6 6.4 7.0 7.8 7.9 7.8 8.3 8.8 8.7 8.9 8.9 9.0 8.6 9.0 8.5 8.4 8.7 8.2 7.7 7.5 7.7 7.3 6.3 6.5
6.3 6.4 6.5 6.5 6.5 6.5 6.5 6.4 6.4 6.2 6.1 6.2 6.3 6.2 5.9 6.0 6.1 6.1 6.1 6.2 6.2 6.2 6.4 7.1 7.6 7.7 8.2 8.7 8.7 9.1 8.5 8.9 9.2 9.2 8.9 8.7 8.6 8.7 8.6 8.2 7.9 7.8 7.8 7.0 6.8
6.2 6.3 6.4 6.4 6.5 6.5 6.5 6.5 6.4 6.3 6.3 6.2 6.2 6.3 6.1 6.1 6.1 6.0 6.1 6.0 6.1 6.3 6.5 6.8 7.5 7.4 8.0 8.6 8.9 8.9 8.9 8.4 9.1 9.1 9.2 8.6 8.2 8.7 8.8 8.8 8.3 8.0 7.9 7.5 7.5
6.2 6.3 6.3 6.4 6.4 6.3 6.4 6.5 6.5 6.4 6.4 6.3 6.4 6.3 6.2 6.2 6.4 6.4 6.1 6.1 6.1 6.2 6.4 6.7 7.1 7.4 7.8 8.3 9.0 9.1 9.2 9.0 9.0 9.3 9.6 9.4 8.3 8.2 8.7 8.8 8.6 8.2 8.2 7.9 7.9
6.1 6.2 6.3 6.3 6.2 6.2 6.2 6.3 6.3 6.3 6.3 6.3 6.4 6.3 6.0 6.7 6.4 6.2 6.4 6.2 6.2 6.3 6.4 6.6 6.8 7.3 7.8 7.9 8.3 9.1 9.2 9.4 9.5 9.1 9.6 9.7 9.2 8.1 8.5 8.9 9.1 8.7 8.2 7.8 8.0
6.1 6.2 6.3 6.2 6.2 6.1 6.0 6.0 6.1 6.1 6.2 6.2 6.3 6.3 6.2 6.2 6.5 6.6 6.6 6.4 6.3 6.3 6.4 6.6 6.8 7.4 7.6 7.8 7.8 8.3 9.2 9.6 9.5 9.4 9.5 9.5 9.4 9.0 8.4 9.0 9.4 9.1 8.6 8.7 8.5
6.2 6.2 6.3 6.3 6.2 6.1 6.0 6.2 6.3 6.4 6.5 6.3 6.2 5.9 6.1 6.0 6.6 6.7 6.5 6.4 6.2 6.2 6.3 6.5 6.8 7.5 7.8 7.9 7.7 7.8 9.4 9.4 9.6 9.7 9.6 9.6 9.4 9.3 8.7 8.6 8.9 9.1 9.0 8.8 9.0
6.3 6.3 6.3 6.4 6.2 6.2 6.3 6.4 6.1 6.3 6.6 6.6 6.5 6.5 6.6 6.8 6.1 6.4 6.6 6.4 6.3 6.3 6.5 6.7 7.0 7.2 7.2 7.3 7.4 8.1 8.3 8.7 9.2 9.4 9.7 9.7 9.5 9.3 9.2 9.0 9.0 9.1 9.0 8.9 8.8
6.4 6.4 6.4 6.4 6.4 6.4 6.4 6.2 6.2 6.2 6.4 6.6 6.6 6.5 6.7 6.8 6.7 6.5 6.5 6.7 6.5 6.4 6.6 6.7 7.2 7.2 7.3 7.2 7.8 8.1 8.1 8.3 8.2 8.3 8.9 8.8 9.2 9.3 9.4 9.0 8.9 8.9 9.1 8.8 9.3
6.5 6.5 6.4 6.4 6.3 6.2 6.4 6.4 6.5 6.4 6.8 6.7 7.0 6.8 6.9 6.8 6.9 6.9 6.7 6.5 6.5 6.6 6.6 6.9 7.2 7.1 7.3 7.5 7.7 7.9 8.2 7.9 8.0 8.1 8.3 8.6 8.7 9.1 9.4 9.4 9.0 9.0 9.0 8.9 9.1
6.5 6.5 6.4 6.3 6.3 6.4 6.6 6.6 6.8 6.5 6.3 7.0 7.0 6.9 6.8 6.8 6.8 6.9 6.7 6.7 6.7 6.8 6.8 7.1 7.2 7.4 7.5 7.7 8.0 8.1 8.0 7.9 8.0 8.4 8.5 8.7 8.5 9.0 9.3 9.6 9.5 9.4 9.4 9.1 9.1
6.6 6.6 6.5 6.3 6.5 6.6 6.5 6.7 6.9 6.5 6.8 7.1 7.2 7.1 6.9 6.8 6.8 6.9 7.0 6.7 6.8 6.9 7.0 7.2 7.3 7.3 7.5 7.7 7.6 7.9 8.0 8.0 8.1 8.5 8.4 9.2 8.6 9.1 9.5 9.6 9.6 9.4 9.2 9.1 8.9
6.7 6.6 6.5 6.5 6.7 6.5 6.6 6.8 6.9 7.0 7.4 7.5 7.4 7.0 6.9 6.8 6.9 6.9 7.0 7.1 6.9 7.0 7.4 7.9 8.1 7.9 7.8 7.9 8.2 8.3 8.1 7.9 6.9 6.7 7.2 8.9 8.7 9.1 9.4 9.5 9.6 9.4 9.2 9.2 9.0
6.6 6.6 6.5 6.6 6.4 6.3 6.6 7.1 7.3 7.5 7.4 7.5 7.7 7.5 7.2 7.2 7.1 7.2 7.2 7.4 7.4 7.3 7.2 7.6 8.1 8.1 8.3 8.3 8.4 8.4 8.3 7.9 7.2 6.0 7.2 8.7 9.0 9.1 9.3 9.4 9.4 9.4 9.4 9.0 8.8
6.5 6.6 6.5 6.5 6.5 6.6 6.9 7.2 7.6 7.1 7.2 7.5 7.5 7.8 7.5 7.7 7.5 7.3 7.3 7.7 7.9 7.7 7.6 7.6 7.8 8.0 7.9 8.5 8.7 8.9 8.5 8.3 8.2 8.3 7.6 8.5 9.1 9.5 9.4 9.4 9.5 9.4 9.2 8.7 8.7
6.4 6.5 6.5 6.6 6.5 6.7 7.0 7.4 7.5 7.2 7.4 7.6 7.7 7.6 7.9 7.8 7.7 7.5 7.6 8.0 8.0 7.8 7.7 7.9 8.2 8.5 8.7 8.6 9.0 9.2 9.3 9.0 8.8 7.6 7.7 8.4 9.1 9.2 9.3 9.2 9.0 8.8 8.8 8.9 8.9
6.2 6.3 6.3 6.3 6.4 6.7 7.1 7.5 7.5 7.2 7.3 7.5 7.7 7.9 7.8 7.6 8.0 7.9 8.2 8.3 8.2 8.0 7.9 7.5 8.3 8.9 8.8 9.1 9.1 8.9 9.5 9.4 9.2 9.1 7.9 6.1 8.8 9.3 9.4 9.5 9.4 9.1 9.0 9.1 9.2
6.0 6.2 6.0 6.0 6.3 6.4 7.3 7.8 7.3 7.2 7.2 7.4 7.5 7.7 7.7 7.8 8.0 8.3 8.2 8.2 8.2 8.2 8.2 8.3 8.2 8.2 8.6 8.8 8.7 8.8 9.1 9.3 9.2 9.3 9.2 8.9 8.8 9.2 9.0 9.0 9.2 9.0 8.8 8.9 9.0
5.6 6.2 5.8 5.7 6.0 6.4 7.2 7.5 7.1 7.1 7.2 7.3 7.4 7.6 7.7 7.6 8.1 8.0 7.9 8.1 8.2 8.2 8.1 7.8 7.6 7.7 8.2 8.9 9.1 9.2 8.8 8.8 9.0 9.2 9.0 8.6 9.2 9.2 9.2 9.2 9.4 9.3 8.8 8.7 8.8
6.0 5.8 5.5 5.7 6.1 6.4 6.6 7.4 7.1 7.0 7.1 7.2 7.4 7.3 7.4 7.5 7.6 8.0 7.7 7.8 7.8 7.9 7.8 7.8 7.7 7.6 7.8 8.4 8.3 8.7 8.6 8.6 8.8 9.0 8.9 8.9 8.8 9.1 9.1 9.5 9.5 9.4 9.2 8.9 8.8
6.1 5.6 5.4 5.5 6.2 6.7 6.9 7.5 7.3 7.1 7.3 7.2 7.2 7.2 7.4 7.4 7.5 7.7 7.7 7.7 7.5 7.4 7.5 7.5 7.5 7.9 7.8 7.6 7.8 8.2 8.3 8.5 8.7 8.8 8.9 8.7 8.6 8.8 8.9 9.1 9.3 9.4 9.0 8.6 8.4
6.2 6.2 6.3 6.3 6.5 6.7 7.0 7.5 7.5 7.4 7.5 7.3 7.1 7.2 7.2 7.1 7.2 7.3 7.2 7.5 7.4 7.2 7.3 7.2 7.4 7.4 7.7 7.9 7.9 7.8 8.4 8.6 8.6 8.6 8.8 8.7 8.7 8.7 9.1 9.1 9.1 9.1 8.8 8.6 8.2
6.7 6.8 7.0 7.2 7.2 7.4 6.8 6.8 7.5 7.6 7.1 7.1 7.0 6.9 6.8 6.8 6.9 6.9 7.0 7.2 6.9 7.3 7.3 7.4 7.3 7.4 7.6 7.8 7.9 8.2 8.3 8.6 8.6 8.8 8.6 8.6 8.2 8.2 8.7 9.0 9.1 8.8 8.7 8.4 8.3
Wind_Speed
14 15 15 15 16 16 17 17 18 18 18 18 19 19 20 21 21 4 4 7 8 27 17 10 9 8 7 2 3 1 4 4 4 8 6 6 2 3 4 11 13 7 11 22 22
15 15 15 16 17 17 17 18 18 19 19 19 19 19 19 20 3 4 5 17 3 29 7 15 13 15 6 10 7 5 4 7 6 10 9 8 6 4 4 11 4 16 16 24 25
15 15 16 16 17 18 18 18 18 19 19 20 19 19 18 15 3 5 9 10 15 19 3 7 7 12 14 9 10 8 5 14 16 13 16 11 11 4 7 9 20 23 21 25 25
15 16 16 17 17 18 19 19 19 19 19 19 19 20 24 2 2 1 9 7 12 11 5 3 3 5 5 4 1 7 7 10 11 10 10 10 8 6 6 7 17 20 20 23 23
16 17 17 18 18 18 19 20 20 20 18 17 17 17 5 3 7 9 12 7 5 4 0 3 5 4 7 8 10 17 5 12 13 10 8 5 2 3 9 16 19 18 15 15 20
17 18 19 19 19 19 20 21 21 20 18 15 14 14 2 1 3 11 9 6 3 2 2 2 4 7 3 6 4 2 9 10 9 10 7 4 1 1 11 19 20 19 14 13 14
17 18 18 19 20 20 21 22 22 20 16 12 10 3 1 9 2 8 8 7 5 4 3 5 4 6 5 8 4 11 7 15 12 11 6 8 5 4 12 19 21 20 15 14 14
17 18 19 19 21 22 23 23 23 19 13 7 4 0 6 6 3 4 5 4 5 7 5 11 6 5 3 4 8 6 1 5 5 4 4 2 6 7 9 19 19 20 17 15 15
18 18 19 19 20 22 25 28 21 12 7 4 1 1 8 11 4 6 7 6 4 6 6 9 3 3 7 3 6 5 2 5 3 17 4 2 4 10 13 13 17 18 18 15 13
18 18 19 19 19 21 29 17 9 9 3 4 4 3 5 5 4 5 5 5 4 4 6 2 5 3 5 5 4 8 9 5 2 6 3 6 7 10 14 15 16 15 17 16 15
19 19 19 19 18 18 12 4 4 3 1 7 5 3 4 5 3 2 5 1 2 6 3 4 2 7 12 5 7 7 3 3 5 3 7 11 8 17 15 11 12 14 16 16 20
19 20 20 20 19 16 2 0 6 2 7 10 11 7 8 4 0 1 4 4 2 2 4 6 6 11 7 10 11 6 5 7 6 10 1 1 6 9 15 18 21 19 18 19 16
19 20 21 22 25 2 3 7 6 7 1 7 6 5 6 6 4 6 6 4 3 2 5 6 10 5 5 8 5 4 1 4 3 6 7 4 10 4 9 13 18 17 22 18 20
19 19 20 29 2 4 4 5 10 6 5 6 4 6 4 4 5 8 8 6 3 7 5 6 8 4 6 4 3 2 4 2 6 5 2 5 5 7 7 7 18 20 19 18 19
18 18 17 9 4 2 4 13 9 5 3 3 4 2 7 8 2 4 6 4 6 6 4 9 6 8 5 5 2 6 3 3 2 5 4 6 3 9 3 9 14 20 23 21 21
17 15 16 4 2 7 18 11 5 5 3 3 4 5 5 1 4 3 5 2 3 3 2 8 5 5 7 2 0 2 7 9 6 3 4 4 5 9 4 8 5 19 22 22 19
17 14 6 6 4 11 9 4 5 3 2 6 5 5 3 4 3 3 7 4 4 2 4 7 8 7 6 4 7 10 8 4 6 5 6 5 1 10 11 6 8 18 22 22 19
14 9 6 6 10 11 5 5 3 4 5 2 6 5 7 6 5 7 5 3 5 5 1 3 8 6 2 9 7 4 8 5 3 2 7 5 5 7 8 6 7 8 17 14 10
12 1 3 5 13 3 5 3 6 6 5 5 5 5 4 5 6 5 9 8 9 9 8 4 5 7 5 3 9 4 2 6 5 1 4 4 9 10 7 8 11 10 12 8 11
1 1 4 4 18 4 4 5 4 4 6 5 4 3 7 5 7 8 9 7 6 11 7 5 2 2 6 6 3 4 3 3 4 0 4 5 6 5 6 7 10 9 9 7 8
2 3 4 16 4 5 3 7 6 7 7 4 2 3 1 2 8 5 8 4 5 1 8 4 4 8 3 2 2 6 4 5 4 5 4 2 7 5 3 11 16 12 8 6 7
1 1 2 6 3 1 3 5 5 6 7 2 2 3 1 4 2 3 2 0 4 4 4 1 6 0 6 4 5 4 2 4 5 8 2 3 6 9 9 7 17 11 9 8 8
0 3 2 6 3 3 6 6 4 7 6 3 4 1 3 2 3 4 1 1 6 5 5 1 3 3 10 9 6 6 4 1 2 2 2 4 6 6 11 12 10 13 11 12 12
2 2 4 3 2 5 2 7 5 8 6 5 2 5 7 6 5 3 6 2 3 5 7 9 3 6 6 7 3 7 11 6 4 3 3 4 6 4 2 14 10 11 12 19 17
2 4 3 3 5 8 5 5 6 6 4 4 4 2 0 2 4 5 6 7 9 7 4 5 4 5 4 4 3 1 6 8 4 2 1 3 4 7 7 2 7 8 8 9 13
1 2 4 3 3 6 9 6 6 5 5 4 6 7 9 5 3 2 4 4 2 8 5 6 1 2 5 5 5 4 7 7 6 5 5 7 4 8 1 3 12 10 11 8 6
3 3 4 4 4 5 2 9 2 5 8 7 9 8 10 5 4 3 3 2 1 4 2 3 3 3 3 5 5 5 3 6 4 4 3 5 5 6 5 9 3 14 16 12 9
Wind_Direction
348 345 345 340 337 337 335 333 331 330 331 332 333 333 331 332 319 162 236 225 170 164 130 163 200 166 161 249 310 136 69 60 218 170 215 258 258 193 241 164 158 187 148 151 144
346 343 341 339 337 334 332 331 330 329 330 333 333 330 330 334 318 259 212 161 173 154 158 169 195 193 174 189 228 152 143 166 213 162 180 185 203 256 77 190 159 119 134 132 138
342 340 339 337 334 330 330 329 328 328 330 332 331 326 324 327 321 251 148 164 162 166 219 193 202 205 227 198 198 207 211 150 183 221 158 180 195 196 135 158 154 152 147 148 149
338 337 336 334 330 330 328 326 326 326 329 329 330 328 321 238 142 172 158 147 164 193 232 245 253 210 241 341 261 120 137 145 187 216 168 166 160 174 157 164 161 158 154 151 154
337 335 332 332 329 329 326 323 322 323 326 328 329 331 339 21 253 149 148 159 169 231 159 280 307 315 3 317 353 96 121 167 172 198 179 141 167 173 183 148 154 164 165 160 169
334 333 330 330 329 328 325 321 318 320 322 326 326 325 345 325 244 146 146 146 221 229 287 292 285 299 344 316 336 321 166 168 186 200 167 162 123 161 137 145 157 171 175 182 163
331 330 329 330 328 327 323 316 313 313 315 319 316 313 70 231 200 172 174 180 189 204 279 272 310 23 311 319 317 322 121 170 183 206 194 181 61 121 156 158 166 174 185 187 188
330 329 328 329 327 325 318 309 305 303 298 297 341 56 249 249 249 182 208 284 243 229 204 261 268 303 171 305 333 304 198 139 189 180 204 154 194 181 167 171 176 178 187 191 202
328 327 328 328 327 322 316 309 299 285 262 257 298 92 270 314 222 232 158 221 230 284 265 277 18 254 353 36 346 347 316 222 198 202 138 171 165 203 174 160 181 187 185 195 202
328 328 328 326 325 325 318 300 284 306 181 203 263 348 281 226 215 206 222 207 208 292 343 327 38 353 344 72 272 293 324 332 123 211 197 172 258 199 174 172 189 192 189 192 196
331 329 327 323 324 332 345 2 13 8 68 194 206 259 286 261 115 198 205 248 70 65 202 296 108 251 254 230 245 264 264 317 310 261 181 198 190 180 188 185 195 192 196 191 196
328 326 325 321 320 323 292 152 211 128 308 228 237 251 271 225 214 266 104 136 99 263 358 359 272 254 272 290 290 315 27 322 320 323 186 243 243 218 183 199 200 188 196 199 194
326 326 326 321 315 300 207 239 263 43 55 289 194 192 235 152 197 243 133 162 159 243 257 193 248 290 275 290 290 336 291 319 255 313 351 28 326 314 210 216 205 197 199 194 187
323 325 330 326 321 327 253 277 299 137 55 277 189 261 200 123 300 206 182 142 184 219 253 233 269 268 321 292 142 43 309 341 357 45 291 70 281 306 285 219 207 195 196 196 197
323 325 330 340 285 293 292 328 301 60 54 170 194 212 147 150 268 229 164 65 192 238 69 256 299 317 320 259 328 243 272 341 300 342 40 320 48 275 321 292 199 194 193 196 196
319 322 333 92 226 249 307 315 51 52 249 223 142 156 107 326 311 326 128 92 187 253 288 240 261 216 223 272 313 266 31 15 26 70 2 259 134 283 274 231 180 183 195 194 191
311 309 304 305 231 349 327 38 53 130 318 170 171 153 144 213 221 151 163 183 153 95 296 323 273 264 161 317 332 61 53 346 352 11 226 323 191 236 263 290 176 177 194 199 192
310 308 246 228 268 360 22 54 119 244 252 191 144 114 172 171 235 189 135 205 266 104 72 183 325 335 234 175 187 188 145 149 248 262 269 308 250 273 262 215 69 149 191 193 171
313 215 263 246 217 143 70 79 210 224 324 108 51 121 237 234 181 141 190 202 212 162 178 161 283 312 9 146 127 272 220 187 128 109 31 290 298 322 343 64 82 89 95 72 152
349 324 254 175 147 77 77 232 247 260 323 68 155 170 193 230 153 171 177 218 229 187 148 195 340 288 322 48 317 150 184 23 13 319 306 306 298 264 14 49 68 70 75 56 40
29 21 261 126 94 56 163 236 279 281 310 74 92 356 5 19 195 193 208 285 173 88 136 150 106 299 53 7 298 334 336 62 115 135 178 316 285 230 229 143 121 116 110 103 94
41 357 205 108 76 195 189 213 296 292 329 29 107 187 210 20 345 210 157 87 96 149 103 291 128 26 235 242 213 213 322 91 116 275 185 154 283 323 69 38 100 98 92 89 82
167 250 311 103 146 247 289 284 258 287 265 2 344 62 0 41 36 62 52 70 117 86 148 199 28 29 347 355 352 30 333 141 139 58 148 104 278 332 103 102 116 110 112 117 114
66 5 325 39 144 150 301 282 245 271 232 97 33 33 41 23 21 353 9 255 99 112 132 86 106 146 195 219 216 326 333 345 94 45 201 206 300 342 256 137 157 135 134 130 137
120 246 207 234 279 244 172 283 308 289 196 115 26 358 56 8 31 22 1 357 22 358 56 98 170 165 238 263 324 265 335 345 7 271 121 232 193 274 256 35 127 132 110 89 116
89 47 351 259 300 244 163 254 228 292 167 215 161 59 78 94 113 52 30 44 30 6 43 357 1 85 339 330 55 347 335 354 348 327 320 335 334 237 297 173 133 136 120 116 118
311 333 114 286 331 31 38 268 198 141 20 46 115 99 82 119 95 323 184 228 277 122 56 84 103 77 282 341 6 12 301 310 281 318 308 335 257 311 95 162 208 145 138 149 158